• în România
  • Lista ţărilor
  • Pe 7 zile
  • Temperatura apei
  • Hartă satelitară
  • Meteo pe hartă
  • Widget-uri
  • user-avatar
    Intrare

    Meteo pe oră la Konyshkovo

    Astăzi, 25 Septembrie, Marţi

    Timp Temperatura Precipitaţii Vânt Presiune Umiditate
    00:00 +4°C° 1.9 mm 6 m/s 724 mmHg 94%
    01:00 +4°C° 1.9 mm 6 m/s 724 mmHg 93%
    02:00 +4°C° 1.9 mm 7 m/s 724 mmHg 93%
    03:00 +4°C° 1 mm 7 m/s 725 mmHg 92%
    04:00 +4°C° 1 mm 7 m/s 725 mmHg 91%
    05:00 +4°C° 1 mm 7 m/s 726 mmHg 90%
    06:00 +4°C° 0.4 mm 7 m/s 727 mmHg 89%
    07:00 +4°C° 0.4 mm 7 m/s 728 mmHg 87%
    08:00 +4°C° 0.4 mm 7 m/s 728 mmHg 86%
    09:00 +5°C° 0.1 mm 7 m/s 729 mmHg 83%
    10:00 +5°C° 0.1 mm 7 m/s 730 mmHg 80%
    11:00 +6°C° 0.1 mm 7 m/s 731 mmHg 78%
    12:00 +6°C° 0.1 mm 7 m/s 732 mmHg 75%
    13:00 +6°C° 0.1 mm 7 m/s 733 mmHg 73%
    14:00 +6°C° 0.1 mm 7 m/s 734 mmHg 70%
    15:00 +7°C° 0 mm 6 m/s 734 mmHg 71%
    16:00 +7°C° 0 mm 5 m/s 735 mmHg 71%
    17:00 +6°C° 0 mm 5 m/s 736 mmHg 72%
    18:00 +6°C° 0 mm 5 m/s 736 mmHg 74%
    19:00 +5°C° 0 mm 5 m/s 737 mmHg 76%
    20:00 +3°C° 0 mm 5 m/s 738 mmHg 78%
    21:00 +4°C° 0 mm 4 m/s 739 mmHg 79%
    22:00 +3°C° 0 mm 4 m/s 739 mmHg 79%
    23:00 +3°C° 0 mm 4 m/s 740 mmHg 79%

    Mâine, 26 Septembrie, Miercuri

    Timp Temperatura Precipitaţii Vânt Presiune Umiditate
    00:00 +3°C° 0 mm 4 m/s 741 mmHg 79%
    01:00 +1°C° 0 mm 4 m/s 741 mmHg 78%
    02:00 +1°C° 0 mm 4 m/s 742 mmHg 78%
    03:00 +1°C° 0 mm 4 m/s 742 mmHg 77%
    04:00 0°C° 0 mm 4 m/s 743 mmHg 77%
    05:00 +1°C° 0 mm 3 m/s 743 mmHg 77%
    06:00 +2°C° 0 mm 3 m/s 743 mmHg 75%
    07:00 +3°C° 0 mm 3 m/s 744 mmHg 73%
    08:00 +3°C° 0 mm 3 m/s 744 mmHg 72%
    09:00 +5°C° 0 mm 4 m/s 744 mmHg 69%
    10:00 +7°C° 0 mm 4 m/s 744 mmHg 66%
    11:00 +8°C° 0 mm 4 m/s 744 mmHg 63%
    12:00 +10°C° 0 mm 4 m/s 744 mmHg 59%
    13:00 +10°C° 0 mm 4 m/s 743 mmHg 56%
    14:00 +10°C° 0 mm 5 m/s 743 mmHg 52%
    15:00 +10°C° 0 mm 4 m/s 742 mmHg 56%
    16:00 +8°C° 0 mm 4 m/s 741 mmHg 59%
    17:00 +7°C° 0 mm 4 m/s 741 mmHg 63%
    18:00 +7°C° 0.1 mm 5 m/s 740 mmHg 67%
    19:00 +7°C° 0.1 mm 5 m/s 739 mmHg 70%
    20:00 +5°C° 0.1 mm 6 m/s 738 mmHg 74%
    21:00 +5°C° 1.2 mm 7 m/s 737 mmHg 79%
    22:00 +5°C° 1.2 mm 7 m/s 735 mmHg 83%
    23:00 +4°C° 1.2 mm 8 m/s 734 mmHg 88%

    Poimâine, 27 Septembrie, Joi

    Timp Temperatura Precipitaţii Vânt Presiune Umiditate
    00:00 +5°C° 1.1 mm 8 m/s 733 mmHg 88%
    01:00 +5°C° 1.1 mm 8 m/s 732 mmHg 88%
    02:00 +5°C° 1.1 mm 8 m/s 731 mmHg 89%
    03:00 +6°C° 1.4 mm 7 m/s 730 mmHg 89%
    04:00 +7°C° 1.4 mm 6 m/s 730 mmHg 90%
    05:00 +7°C° 1.4 mm 6 m/s 730 mmHg 91%
    06:00 +7°C° 0.1 mm 5 m/s 730 mmHg 88%
    07:00 +7°C° 0.1 mm 5 m/s 730 mmHg 85%
    08:00 +8°C° 0.1 mm 5 m/s 730 mmHg 83%
    09:00 +8°C° 0.1 mm 5 m/s 731 mmHg 77%
    10:00 +9°C° 0.1 mm 6 m/s 731 mmHg 71%
    11:00 +9°C° 0.1 mm 6 m/s 731 mmHg 65%
    12:00 +9°C° 0.2 mm 6 m/s 731 mmHg 65%
    13:00 +9°C° 0.2 mm 7 m/s 732 mmHg 65%
    14:00 +9°C° 0.2 mm 7 m/s 732 mmHg 64%
    15:00 +8°C° 0 mm 6 m/s 733 mmHg 67%
    16:00 +7°C° 0 mm 5 m/s 733 mmHg 69%
    17:00 +7°C° 0 mm 4 m/s 734 mmHg 72%
    18:00 +6°C° 0 mm 4 m/s 734 mmHg 73%
    19:00 +6°C° 0 mm 4 m/s 735 mmHg 74%
    20:00 +5°C° 0 mm 4 m/s 735 mmHg 75%
    21:00 +5°C° 0 mm 4 m/s 735 mmHg 76%
    22:00 +4°C° 0 mm 4 m/s 736 mmHg 77%
    23:00 +4°C° 0 mm 4 m/s 736 mmHg 78%

    28 Septembrie, Vineri

    Timp Temperatura Precipitaţii Vânt Presiune Umiditate
    00:00 +4°C° 0 mm 3 m/s 736 mmHg 81%
    01:00 +3°C° 0 mm 3 m/s 736 mmHg 83%
    02:00 +3°C° 0 mm 3 m/s 735 mmHg 85%
    03:00 +3°C° 0 mm 3 m/s 735 mmHg 83%
    04:00 +4°C° 0 mm 3 m/s 734 mmHg 81%
    05:00 +4°C° 0 mm 4 m/s 733 mmHg 79%
    06:00 +6°C° 0.6 mm 5 m/s 732 mmHg 82%
    07:00 +7°C° 0.6 mm 6 m/s 730 mmHg 85%
    08:00 +8°C° 0.6 mm 7 m/s 729 mmHg 88%
    09:00 +9°C° 0.7 mm 7 m/s 728 mmHg 87%
    10:00 +10°C° 0.7 mm 8 m/s 727 mmHg 87%
    11:00 +11°C° 0.7 mm 8 m/s 726 mmHg 86%
    12:00 +11°C° 1 mm 8 m/s 727 mmHg 85%
    13:00 +11°C° 1 mm 7 m/s 727 mmHg 83%
    14:00 +11°C° 1 mm 7 m/s 727 mmHg 82%
    15:00 +9°C° 0.3 mm 6 m/s 728 mmHg 83%
    16:00 +8°C° 0.3 mm 6 m/s 729 mmHg 84%
    17:00 +7°C° 0.3 mm 6 m/s 730 mmHg 84%
    18:00 +6°C° 0.1 mm 5 m/s 731 mmHg 85%
    19:00 +5°C° 0.1 mm 5 m/s 733 mmHg 85%
    20:00 +3°C° 0.1 mm 4 m/s 734 mmHg 86%
    21:00 +2°C° 0 mm 3 m/s 735 mmHg 88%
    22:00 +2°C° 0 mm 3 m/s 736 mmHg 91%
    23:00 +2°C° 0 mm 2 m/s 737 mmHg 93%

    29 Septembrie, Sâmbătă

    Timp Temperatura Precipitaţii Vânt Presiune Umiditate
    00:00 +2°C° 0 mm 2 m/s 737 mmHg 94%
    01:00 +1°C° 0 mm 2 m/s 738 mmHg 94%
    02:00 +1°C° 0 mm 2 m/s 738 mmHg 94%
    03:00 +1°C° 0 mm 2 m/s 739 mmHg 95%
    04:00 +2°C° 0 mm 1 m/s 739 mmHg 96%
    05:00 +2°C° 0 mm 1 m/s 739 mmHg 96%
    06:00 +3°C° 0.1 mm 1 m/s 740 mmHg 94%
    07:00 +4°C° 0.1 mm 1 m/s 740 mmHg 91%
    08:00 +4°C° 0.1 mm 1 m/s 741 mmHg 88%
    09:00 +5°C° 0.4 mm 1 m/s 741 mmHg 86%
    10:00 +5°C° 0.4 mm 1 m/s 742 mmHg 83%
    11:00 +6°C° 0.4 mm 1 m/s 742 mmHg 81%
    12:00 +6°C° 0.1 mm 1 m/s 742 mmHg 78%
    13:00 +7°C° 0.1 mm 1 m/s 742 mmHg 74%
    14:00 +6°C° 0.1 mm 2 m/s 743 mmHg 71%
    15:00 +5°C° 0 mm 2 m/s 743 mmHg 73%
    16:00 +5°C° 0 mm 1 m/s 743 mmHg 76%
    17:00 +5°C° 0 mm 1 m/s 744 mmHg 78%
    18:00 +4°C° 0 mm 1 m/s 744 mmHg 80%
    19:00 +3°C° 0 mm 1 m/s 745 mmHg 81%
    20:00 +2°C° 0 mm 1 m/s 746 mmHg 83%
    21:00 +2°C° 0 mm 1 m/s 746 mmHg 83%
    22:00 +1°C° 0 mm 1 m/s 746 mmHg 84%
    23:00 +1°C° 0 mm 1 m/s 747 mmHg 84%

    30 Septembrie, Duminică

    Timp Temperatura Precipitaţii Vânt Presiune Umiditate
    00:00 +1°C° 0 mm 1 m/s 747 mmHg 84%
    01:00 0°C° 0 mm 1 m/s 747 mmHg 85%
    02:00 0°C° 0 mm 1 m/s 747 mmHg 85%
    03:00 0°C° 0 mm 1 m/s 747 mmHg 86%
    04:00 0°C° 0 mm 1 m/s 747 mmHg 87%
    05:00 0°C° 0 mm 1 m/s 747 mmHg 88%
    06:00 -1°C° 0 mm 2 m/s 748 mmHg 84%
    07:00 +1°C° 0 mm 2 m/s 748 mmHg 81%
    08:00 +3°C° 0 mm 2 m/s 748 mmHg 78%
    09:00 +3°C° 0 mm 3 m/s 748 mmHg 72%
    10:00 +5°C° 0 mm 3 m/s 748 mmHg 66%
    11:00 +7°C° 0 mm 3 m/s 748 mmHg 60%
    12:00 +7°C° 0 mm 4 m/s 747 mmHg 59%
    13:00 +7°C° 0 mm 4 m/s 747 mmHg 57%
    14:00 +8°C° 0 mm 4 m/s 746 mmHg 56%
    15:00 +8°C° 0 mm 3 m/s 746 mmHg 62%
    16:00 +5°C° 0 mm 3 m/s 746 mmHg 68%
    17:00 +5°C° 0 mm 2 m/s 745 mmHg 74%
    18:00 +4°C° 0 mm 3 m/s 745 mmHg 75%
    19:00 +3°C° 0 mm 3 m/s 745 mmHg 76%
    20:00 +3°C° 0 mm 3 m/s 745 mmHg 77%
    21:00 +3°C° 0 mm 3 m/s 745 mmHg 76%
    22:00 +3°C° 0 mm 3 m/s 744 mmHg 76%
    23:00 +4°C° 0 mm 4 m/s 744 mmHg 75%
    Arată mai mult